STARLINK-2573 (48394 NORAD) Tracking and Keplerian Element Data

This shows tracking and keplerian element data for the satellite.

Feedback or suggestion? Click here.




ElementValue
Catalog48394
NameSTARLINK-2573
Epoch Orbit1475
Epoch Day215.25002315
Epoch Year2021
RAAN320.9065
Inclination53.051
Eccentricity0.0001445
Argument of Perigee73.6165
Mean Anonmoly248.8693
Mean Motion15.0639237
Decay Rate3.321E-05
L11 48394U 21038AT 21215.25002315 .00003321 00000-0 24177-3 0 9994
L22 48394 53.0510 320.9065 0001445 73.6165 248.8693 15.06392370 14754

Live tracking and technical data element details for STARLINK-2573 (NORAD 48394). STARLINK-2573 can be tracked NOW for your location showing map with azimuth and elevation plus other details from your city location.

Track the satellite on the map from your city or location and see movement details for azimuth, elevation, latitude, longitude, range, height, and movement on the map or in text.







IsCatalogInMostPopularTable: catalog: 48394, numindb: 28
Update: records affected: 1



GetName: 48394 STARLINK-2573

Hit Count: updated at: Wed, 04 Aug 2021 00:52:10 GMT